Location: Saratoga Springs
(43.0831°N, 73.7850°W)
Time: 08:41:08
(UTC-04:00)

Vanguard 2 Rocket - Pass Details

Date: 23 April 2024
Orbit: 556 x 3304 km, 32.9° (Epoch: 22 May)

Event Time Altitude Azimuth Distance (km) Brightness Sun altitude
Rises 20:55:01 0° 228° (SW) 5,455 11.1 -12.0°
Reaches altitude 10° 20:58:18 10° 222° (SW) 4,778 10.7 -12.5°
Maximum altitude 21:12:08 48° 154° (SSE) 3,597 9.5 -14.6°
Drops below altitude 10° 21:30:37 10° 89° (E) 6,254 10.7 -17.3°
Sets 21:35:39 0° 85° (E) 7,205 11.1 -18.0°
